Regional Weather Roundup
Issued by NWS Upton, NY

Current Version | Previous Version | Text Only | Print | Product List | Glossary On
Versions: 1 2 3 4 5 6 7 8 9 10 11 12 13 14 15 16 17 18 19 20 21 22 23 24 25 26 27 28 29 30 31 32 33 34 35 36 37 38 39 40 41 42 43 44 45 46 47 48 49 50
000 ASUS41 KOKX 231604 RWROKX REGIONAL WEATHER ROUNDUP NATIONAL WEATHER SERVICE NEW YORK NY 1200 PM EDT MON MAY 23 2016 NOTE: "FAIR" INDICATES FEW OR NO CLOUDS BELOW 12,000 FEET WITH NO SIGNIFICANT WEATHER AND/OR OBSTRUCTIONS TO VISIBILITY. NYZ071-072-176-178-NJZ106-104-231700- NEW YORK CITY METRO AREA CITY SKY/WX TMP DP RH WIND PRES REMARKS CENTRAL PARK SUNNY 74 51 44 NE7 29.94S LAGUARDIA APRT MOSUNNY 73 56 54 NE8 29.91S KENNEDY INTL MOSUNNY 66 51 58 VRB7 29.94S NEWARK/LIBERTY MOSUNNY 74 52 46 NE10G16 29.91S BRNX BOT. GARD N/A 72 52 49 E2 29.92F TETERBORO SUNNY 74 49 41 E5 29.90S $$ NYZ177-179-078>081-231700- LONG ISLAND NEW YORK CITY SKY/WX TMP DP RH WIND PRES REMARKS FARMINGDALE SUNNY 70 56 61 S10 29.92S ISLIP MOSUNNY 69 50 50 S12 29.92R SHIRLEY MOSUNNY 71 49 45 S12 29.92S RIVERHEAD N/A 66 52 59 NE3 29.91S WESTHAMPTON SUNNY 68 50 52 VRB5 29.93R EAST HAMPTON FAIR 69 46 42 N10 29.91S MONTAUK POINT N/A 66 46 48 NW5 29.92F $$ NYZ052-065-067-231700- HUDSON VALLEY CITY SKY/WX TMP DP RH WIND PRES REMARKS WHITE PLAINS MOSUNNY 68 54 60 SE10 29.92R NEWBURGH SUNNY 75 55 50 E14 29.93F MONTGOMERY SUNNY 74 53 48 NE10G20 29.91F POUGHKEEPSIE SUNNY 76 53 44 VRB6 29.90F ALBANY MOSUNNY 75 52 44 N10G17 29.94F $$ NJZ001-105-106-008-010-013-015-019>022-104-231700- NEW JERSEY CITY SKY/WX TMP DP RH WIND PRES REMARKS NEWARK/LIBERTY MOSUNNY 74 52 46 NE10G16 29.91S TETERBORO SUNNY 74 49 41 E5 29.90S CALDWELL MOSUNNY 75 50 41 NE9G17 29.91S MORRISTOWN MOSUNNY 73 55 53 E3 29.91F SOMERVILLE SUNNY 76 53 44 CALM 29.89F SUSSEX SUNNY 73 51 46 NE10 29.92F ANDOVER N/A 72 51 47 VRB7 29.93S TRENTON SUNNY 73 53 49 NE10 29.91S MILLVILLE CLOUDY 69 52 54 NE9 29.92F ATLANTIC CITY MOSUNNY 69 49 48 E15 29.93S WRIGHTSTOWN NOT AVBL TOMS RIVER MOSUNNY 68 50 52 E7 29.93S BELMAR SUNNY 68 54 60 E10 29.94R $$ PAZ047>061-062-071-231700- EASTERN PENNSYLVANIA CITY SKY/WX TMP DP RH WIND PRES REMARKS PHILADELPHIA PTSUNNY 70 53 54 SE3 29.93S ALLENTOWN SUNNY 74 52 46 VRB7 29.93S SCRANTON SUNNY 71 54 54 VRB3 29.94F $$ CTZ002-004>006-009-010-012-RIZ004-006-007-MAZ004-011-015-231700- SOUTHERN NEW ENGLAND IN CT CITY SKY/WX TMP DP RH WIND PRES REMARKS BRADLEY INTL MOSUNNY 74 52 46 NE9 29.90F HARTFORD SUNNY 74 55 51 CALM 29.90F DANBURY SUNNY 73 51 46 NE8G18 29.92 WTRBRY/OXFORD MOSUNNY 72 50 46 NE12G18 29.93F BRIDGEPORT SUNNY 67 53 61 SE9 29.92S MERIDEN SUNNY 74 52 46 E7 29.91F NEW HAVEN MOSUNNY 67 54 63 S10 29.91S CHESTER FAIR 73 50 43 VRB7 29.90F GROTON MOSUNNY 65 51 60 SW8 29.90S WILLIMANTIC SUNNY 77 47 34 NE9 29.90F IN RI CITY SKY/WX TMP DP RH WIND PRES REMARKS PROVIDENCE MOSUNNY 74 47 38 NE12 29.90F BLOCK ISLAND CLOUDY 68 47 46 N7 29.91F WESTERLY MOSUNNY 71 46 40 S8 29.90F IN MA CITY SKY/WX TMP DP RH WIND PRES REMARKS BOSTON MOSUNNY 71 51 49 E6 29.91F WORCESTER SUNNY 70 46 42 E6 29.92F WESTFIELD SUNNY 74 50 42 CALM 29.91F PROVINCETOWN CLOUDY 60 51 72 N12 29.92F NANTUCKET MOSUNNY 70 49 47 N14 29.89F $$ ANZ330-335-338-340-345-350-353-355-231700- COASTAL MARINE OBSERVATIONS STATION/POSITION TIME SKY/WX TEMP WIND PRES VSBY WAVE AIR SEA DIR/SP/G HT/PER (UTC) (F) (DEG/KT/KT) (MB) (MI) (FT/S) NY HARB ENTRANCE 1450 58 58 70/ 4/ 4 1013.1 4/ 9 20S FIRE ISLAND 1450 55 54 30/ 6/ 8 1012.9 4/ 9 GREAT SOUTH BAY 1530 62 63 140/ 8/ 8 N/A 23 SSW MONTAUK P 1550 56 54 360/ 4/ 4 1012.7 4/ 9 15 E BARNEGAT LI 1522 54 N/A 4/ 9 HUDSON CANYON 1450 54 53 1012.0 4/ 8 KINGS POINT 1500 67 57 1013.0 EXECUTION ROCKS NOT AVBL CENTRAL LI SOUND 1500 58 20/ 2/ 4 N/A 0 EASTERN LI SOUND 1500 56 53 260/ 4/ 4 N/A ROBBINS REEF 1500 66 170/ 2/ 2 1012.5 $$ >>>>>>>>>>>>>>>>>>>>>>>>>>>> KEY <<<<<<<<<<<<<<<<<<<<<<<<<<< > < > SKY/WX - SKY CONDITION/PRESENT WEATHER < > TMP - TEMPERATURE IN FAHRENHEIT < > DP - DEWPOINT IN FAHRENHEIT < > RH - RELATIVE HUMIDITY IN PERCENT < > WIND - DIRECTION AND SPEED IN MPH < > PRES - MEAN SEA LEVEL PRESSURE IN INCHES OF HG < > WCI - WIND CHILL INDEX < > VSB - VISIBILITY IN MILES < > HX - HEAT INDEX < > TC - TEMPERATURE IN CELSIUS < > VRB - VARIABLE WIND DIRECTION < > < >>>>>>>>>>>>>>>>>>>>>>>>>>>> KEY <<<<<<<<<<<<<<<<<<<<<<<<<<<

USA.gov is the U.S. government's official web portal to all federal, state and local government web resources and services.